TimeCST,TemperatureF,Dew PointF,Humidity,Sea Level PressureIn,VisibilityMPH,Wind Direction,Wind SpeedMPH,Gust SpeedMPH,PrecipitationIn,Events,Conditions,WindDirDegrees,DateUTC
12:15 AM,30.0,23.7,77,30.23,10.0,North,6.9,-,N/A,,Overcast,350,2013-02-08 06:15:00
12:35 AM,30.0,23.9,78,30.24,10.0,North,10.4,-,N/A,,Overcast,350,2013-02-08 06:35:00
12:55 AM,30.0,23.7,77,30.24,10.0,North,9.2,-,N/A,,Overcast,10,2013-02-08 06:55:00
1:15 AM,29.7,23.7,79,30.25,10.0,North,4.6,-,N/A,,Overcast,10,2013-02-08 07:15:00
1:35 AM,29.1,24.4,83,30.25,10.0,NE,6.9,-,N/A,,Overcast,50,2013-02-08 07:35:00
1:55 AM,28.2,24.3,85,30.25,10.0,NNE,8.1,-,N/A,,Overcast,30,2013-02-08 07:55:00
2:15 AM,28.0,24.3,86,30.25,7.0,NE,5.8,-,N/A,,Overcast,40,2013-02-08 08:15:00
2:35 AM,27.5,23.9,86,30.25,7.0,NNE,5.8,-,N/A,,Overcast,30,2013-02-08 08:35:00
2:55 AM,27.5,23.7,86,30.26,10.0,North,8.1,-,N/A,,Overcast,10,2013-02-08 08:55:00
3:35 AM,26.6,23.2,87,30.26,10.0,NE,5.8,-,N/A,,Overcast,40,2013-02-08 09:35:00
3:55 AM,26.6,23.5,88,30.27,7.0,NNE,3.5,-,N/A,,Overcast,30,2013-02-08 09:55:00
4:15 AM,26.6,23.7,89,30.27,7.0,ENE,5.8,-,N/A,,Overcast,70,2013-02-08 10:15:00
4:35 AM,26.8,23.7,88,30.27,7.0,ENE,3.5,-,N/A,,Overcast,60,2013-02-08 10:35:00
4:55 AM,26.8,23.7,88,30.27,7.0,NE,4.6,-,N/A,,Overcast,50,2013-02-08 10:55:00
5:15 AM,26.6,23.7,89,30.27,7.0,ENE,4.6,-,N/A,,Overcast,60,2013-02-08 11:15:00
5:35 AM,26.4,23.5,89,30.27,7.0,East,6.9,-,N/A,,Overcast,80,2013-02-08 11:35:00
5:55 AM,26.2,23.4,89,30.28,7.0,NE,3.5,-,N/A,,Overcast,50,2013-02-08 11:55:00
6:15 AM,26.2,23.4,89,30.28,7.0,ENE,4.6,-,N/A,,Overcast,60,2013-02-08 12:15:00
6:35 AM,26.2,23.4,89,30.29,7.0,East,6.9,-,N/A,,Overcast,100,2013-02-08 12:35:00
6:55 AM,26.1,23.2,89,30.29,7.0,Calm,Calm,-,N/A,,Overcast,0,2013-02-08 12:55:00
7:15 AM,26.2,23.4,89,30.29,7.0,SE,3.5,-,N/A,,Overcast,140,2013-02-08 13:15:00
7:35 AM,26.1,23.0,88,30.29,10.0,Calm,Calm,-,N/A,,Overcast,0,2013-02-08 13:35:00
7:55 AM,26.2,23.4,89,30.29,7.0,East,6.9,-,N/A,,Overcast,90,2013-02-08 13:55:00
8:15 AM,26.6,23.7,89,30.30,7.0,East,3.5,-,N/A,,Overcast,90,2013-02-08 14:15:00
8:35 AM,26.6,23.9,90,30.30,7.0,Calm,Calm,-,N/A,,Overcast,0,2013-02-08 14:35:00
8:55 AM,26.6,23.9,90,30.29,4.0,East,6.9,-,N/A,,Overcast,100,2013-02-08 14:55:00
9:15 AM,26.6,23.7,89,30.30,4.0,East,8.1,-,N/A,,Overcast,100,2013-02-08 15:15:00
9:35 AM,26.6,23.7,89,30.30,4.0,Calm,Calm,-,N/A,,Overcast,0,2013-02-08 15:35:00
9:55 AM,27.0,23.7,88,30.30,5.0,East,8.1,-,N/A,,Overcast,100,2013-02-08 15:55:00
10:15 AM,27.3,23.7,86,30.30,5.0,ESE,5.8,-,N/A,,Overcast,120,2013-02-08 16:15:00
10:35 AM,27.5,23.7,86,30.30,7.0,ESE,6.9,-,N/A,,Overcast,120,2013-02-08 16:35:00
10:55 AM,28.0,23.9,84,30.31,5.0,SE,6.9,-,N/A,,Overcast,130,2013-02-08 16:55:00
11:15 AM,28.2,24.3,85,30.32,4.0,South,8.1,-,N/A,,Overcast,170,2013-02-08 17:15:00
11:35 AM,28.4,24.3,84,30.32,4.0,South,6.9,-,N/A,,Overcast,190,2013-02-08 17:35:00
11:55 AM,29.1,24.6,83,30.32,4.0,South,8.1,-,N/A,,Haze,180,2013-02-08 17:55:00
12:15 PM,29.1,24.3,82,30.32,5.0,South,8.1,-,N/A,,Haze,170,2013-02-08 18:15:00
12:35 PM,29.7,24.4,81,30.31,7.0,South,6.9,-,N/A,,Overcast,170,2013-02-08 18:35:00
12:55 PM,30.0,24.4,80,30.29,10.0,SSE,8.1,-,N/A,,Overcast,160,2013-02-08 18:55:00
1:15 PM,31.1,25.0,78,30.28,10.0,SE,6.9,-,N/A,,Overcast,130,2013-02-08 19:15:00
1:35 PM,31.8,25.0,76,30.26,10.0,SSE,12.7,16.1,N/A,,Mostly Cloudy,150,2013-02-08 19:35:00
1:55 PM,32.0,25.0,75,30.25,10.0,SSE,10.4,16.1,N/A,,Scattered Clouds,150,2013-02-08 19:55:00
2:15 PM,32.9,25.3,74,30.24,10.0,SE,12.7,-,N/A,,Clear,130,2013-02-08 20:15:00
2:35 PM,33.8,25.5,72,30.22,10.0,SE,12.7,-,N/A,,Clear,140,2013-02-08 20:35:00
2:55 PM,33.8,25.5,72,30.20,10.0,SE,11.5,-,N/A,,Clear,130,2013-02-08 20:55:00
3:15 PM,34.0,25.9,72,30.20,10.0,SE,11.5,-,N/A,,Clear,130,2013-02-08 21:15:00
3:35 PM,33.8,25.5,72,30.21,10.0,SSE,10.4,-,N/A,,Clear,150,2013-02-08 21:35:00
3:55 PM,34.2,26.2,73,30.20,10.0,SSE,12.7,-,N/A,,Clear,160,2013-02-08 21:55:00
4:15 PM,33.6,25.9,73,30.18,10.0,SSE,10.4,-,N/A,,Clear,150,2013-02-08 22:15:00
4:35 PM,33.3,25.7,74,30.18,10.0,SSE,9.2,-,N/A,,Clear,150,2013-02-08 22:35:00
4:55 PM,33.3,26.1,75,30.17,10.0,SE,9.2,-,N/A,,Clear,140,2013-02-08 22:55:00
5:15 PM,32.0,26.2,79,30.18,10.0,SE,10.4,-,N/A,,Clear,130,2013-02-08 23:15:00
5:35 PM,31.8,26.1,79,30.17,10.0,SE,11.5,-,N/A,,Clear,140,2013-02-08 23:35:00
5:55 PM,31.1,26.1,82,30.17,10.0,SE,10.4,-,N/A,,Clear,140,2013-02-08 23:55:00
6:15 PM,30.6,26.1,83,30.17,10.0,SE,11.5,-,N/A,,Clear,130,2013-02-09 00:15:00
6:35 PM,30.2,26.4,86,30.16,10.0,SE,12.7,-,N/A,,Clear,130,2013-02-09 00:35:00
6:55 PM,30.0,26.2,86,30.16,10.0,SE,12.7,-,N/A,,Clear,130,2013-02-09 00:55:00
7:15 PM,30.2,26.4,86,30.16,10.0,SE,13.8,18.4,N/A,,Clear,130,2013-02-09 01:15:00
7:35 PM,30.2,26.6,86,30.15,10.0,SE,13.8,-,N/A,,Clear,130,2013-02-09 01:35:00
7:55 PM,30.2,26.6,86,30.15,10.0,SE,11.5,-,N/A,,Clear,130,2013-02-09 01:55:00
8:15 PM,30.2,26.6,86,30.14,10.0,SE,11.5,-,N/A,,Clear,130,2013-02-09 02:15:00
8:35 PM,30.0,26.4,86,30.14,10.0,SE,12.7,18.4,N/A,,Clear,130,2013-02-09 02:35:00
8:55 PM,30.0,26.4,86,30.14,10.0,SE,11.5,-,N/A,,Clear,130,2013-02-09 02:55:00
9:15 PM,30.4,26.6,86,30.14,10.0,SE,15.0,-,N/A,,Clear,130,2013-02-09 03:15:00
9:35 PM,30.4,26.6,86,30.12,10.0,SE,16.1,-,N/A,,Clear,130,2013-02-09 03:35:00
9:55 PM,30.4,26.6,86,30.12,10.0,SE,13.8,-,N/A,,Clear,130,2013-02-09 03:55:00
10:15 PM,30.4,26.4,85,30.13,10.0,SE,8.1,-,N/A,,Clear,140,2013-02-09 04:15:00
10:35 PM,30.2,26.4,86,30.14,10.0,SSE,10.4,-,N/A,,Clear,150,2013-02-09 04:35:00
10:55 PM,30.2,26.6,86,30.14,10.0,SSE,11.5,16.1,N/A,,Clear,150,2013-02-09 04:55:00
11:15 PM,30.2,26.6,86,30.13,10.0,SE,11.5,-,N/A,,Clear,140,2013-02-09 05:15:00
11:35 PM,29.8,26.6,88,30.14,10.0,SSE,12.7,-,N/A,,Clear,150,2013-02-09 05:35:00
11:55 PM,29.3,26.4,89,30.13,7.0,SE,13.8,-,N/A,,Scattered Clouds,140,2013-02-09 05:55:00